Погода в Суккуре

Пакистан     27°43′57″N   68°50′04″E
темп.,
°C
ветер,
м/с
пор.,
м/с
влажн.,
%
обл.,
%
осадки,
мм/ч
давл.,
гПа
погр.,
м
20 апреля, вт
вт2023:00+31ююв122299 0.1 1007180
02:00+30ссв2425100 0.0 1005156
05:00+29сз572796 0.0 1006312
08:00+27ссз683599 0.3 1008603
11:00+30с783068 0.3 10091761
14:00+33сз462258 0.0 10061999
17:00+34ююв14191 0.0 10032605
20:00+29в8103095 0.0 1004406
21 апреля, ср
ср2123:00+24в8114830 0.1 1006378
02:00+22в712510 0.0 1006561
05:00+21всв611540 0.0 1008520
08:00+23в811490 0.0 1010632
11:00+29в55290 0.0 10111401
14:00+33в22220 0.0 10081946
17:00+34вюв22180 0.0 10061922
20:00+31ююв23220 0.0 1007114
22 апреля, чт
чт2223:00+29ююв34250 0.0 100863
02:00+28ююв34270 0.0 100772
05:00+26юв34300 0.0 100760
08:00+30юв46250 0.0 1009366
11:00+35ююв22140 0.0 10081126
14:00+40ююз1280 0.0 10052903
17:00+40ю1260 0.0 10043366
20:00+35вюв3480 0.0 100456
23 апреля, пт
пт2323:00+33ююв3390 0.0 100436
02:00+31ююз33110 0.0 100346
05:00+29ююз33160 0.0 100341
08:00+32ссз11140 0.0 1005189
11:00+39в1180 0.0 10051069
14:00+42юв2250 0.0 10023597
17:00+42юв2350 0.0 10013832
20:00+37всв612110 0.0 1002344
24 апреля, сб
сб2423:00+33всв815190 0.0 1004479
02:00+31в815240 0.0 1005704
05:00+29св714270 0.0 1005529
08:00+31всв711260 0.0 1008801
11:00+37всв67160 0.0 10081806
14:00+41всв55110 0.0 10062658
17:00+41всв44100 0.0 10043651
20:00+36всв48130 0.0 1006213